Weather History for K1A5 - May, 2012

Change the Weather History Date:

Friday, May 25, 2012

  Actual Average (KTOC) Record (KTOC)
Temperature  
Mean Temperature 70 °F -  
Max Temperature 86 °F 82 °F 84 °F (2014)
Min Temperature 53 °F 58 °F 60 °F (2015)
Cooling Degree Days 4    
Growing Degree Days 20 (Base 50)    
Moisture  
Dew Point 55 °F    
Average Humidity 70    
Maximum Humidity 100    
Minimum Humidity 25    
Precipitation  
Precipitation 0.00 in - - ()
Sea Level Pressure  
Sea Level Pressure 30.16 in    
Wind  
Wind Speed 0 mph (SW)    
Max Wind Speed 6 mph    
Max Gust Speed -    
Visibility 7 miles    
Events Fog    
Averages and records for this station are not official NWS values.
T = Trace of Precipitation, MM = Missing Value Source: NWS Daily Summary

Daily Weather History Graph

Daily Weather History Graph

Search for Another Location

Airport or City:

Trip Planner

Search our weather history database for the weather conditions in past years. The results will help you decide how hot, cold, wet, or windy it might be!

Date:

Astronomy

May. 25, 2012 Rise Set
Actual Time 6:22 AM EDT 8:38 PM EDT
Civil Twilight 5:54 AM EDT 9:07 PM EDT
Nautical Twilight 5:18 AM EDT 9:43 PM EDT
Astronomical Twilight 4:40 AM EDT 10:21 PM EDT
Moon 10:18 AM EDT (5/25) No Moon Set
Length of Visible Light 15h 13m
Length of Day
14h 15m
Waxing Crescent, 19% of the Moon is Illuminated
May 25
Waxing Crescent
May 28
First Quarter
Jun 4
Full
Jun 11
Last Quarter
Jun 19
New

Hourly Weather History & Observations

Time (EDT) Temp. Heat Index Dew Point Humidity Pressure Visibility Wind Dir Wind Speed Gust Speed Precip Events Conditions
12:15 AM 57.2 °F - 55.4 °F 94% 30.10 in 7.0 mi Calm Calm - N/A   Scattered Clouds
12:35 AM 57.2 °F - 55.4 °F 94% 30.11 in 5.0 mi Calm Calm - N/A   Scattered Clouds
12:55 AM 57.2 °F - 55.4 °F 94% 30.11 in 7.0 mi Calm Calm - N/A   Scattered Clouds
1:15 AM 55.4 °F - 55.4 °F 100% 30.11 in 3.0 mi Calm Calm - N/A   Mist
1:35 AM 55.4 °F - 55.4 °F 100% 30.11 in 5.0 mi Calm Calm - N/A   Clear
1:55 AM 55.4 °F - 55.4 °F 100% 30.11 in 4.0 mi Calm Calm - N/A   Clear
2:15 AM 55.4 °F - 53.6 °F 94% 30.11 in 2.5 mi Calm Calm - N/A   Mist
2:35 AM 55.4 °F - 53.6 °F 94% 30.11 in 1.5 mi Calm Calm - N/A   Mist
2:55 AM 55.4 °F - 53.6 °F 94% 30.11 in 3.0 mi Calm Calm - N/A   Mist
3:15 AM 55.4 °F - 53.6 °F 94% 30.11 in 4.0 mi Calm Calm - N/A   Clear
3:35 AM 53.6 °F - 53.6 °F 100% 30.12 in 1.0 mi Calm Calm - N/A   Mostly Cloudy
3:55 AM 53.6 °F - 51.8 °F 94% 30.12 in 2.5 mi Calm Calm - N/A   Mist
4:15 AM 53.6 °F - 51.8 °F 94% 30.12 in 2.5 mi Calm Calm - N/A   Mist
4:35 AM 53.6 °F - 51.8 °F 94% 30.13 in 3.0 mi Calm Calm - N/A   Mist
4:55 AM 53.6 °F - 51.8 °F 94% 30.13 in 1.8 mi Calm Calm - N/A   Mist
5:15 AM 53.6 °F - 51.8 °F 94% 30.14 in 4.0 mi Calm Calm - N/A   Mostly Cloudy
5:35 AM 53.6 °F - 51.8 °F 94% 30.15 in 4.0 mi Calm Calm - N/A   Mostly Cloudy
5:55 AM 53.6 °F - 51.8 °F 94% 30.16 in 4.0 mi Calm Calm - N/A   Mostly Cloudy
6:15 AM 53.6 °F - 51.8 °F 94% 30.17 in 3.0 mi Calm Calm - N/A   Overcast
6:35 AM 53.6 °F - 51.8 °F 94% 30.18 in 0.5 mi Calm Calm - N/A Fog Fog
6:55 AM 53.6 °F - 51.8 °F 94% 30.18 in 0.2 mi Calm Calm - N/A Fog Fog
7:15 AM 53.6 °F - 51.8 °F 94% 30.18 in 0.2 mi Calm Calm - N/A Fog Fog
7:35 AM 53.6 °F - 53.6 °F 100% 30.19 in 0.2 mi Calm Calm - N/A Fog Fog
7:55 AM 55.4 °F - 53.6 °F 94% 30.20 in 0.2 mi Calm Calm - N/A Fog Fog
8:15 AM 55.4 °F - 53.6 °F 94% 30.20 in 0.2 mi Calm Calm - N/A Fog Fog
8:35 AM 57.2 °F - 55.4 °F 94% 30.20 in 0.5 mi Calm Calm - N/A Fog Fog
8:55 AM 59.0 °F - 57.2 °F 94% 30.20 in 7.0 mi Calm Calm - N/A   Scattered Clouds
9:15 AM 60.8 °F - 60.8 °F 100% 30.20 in 7.0 mi Calm Calm - N/A   Clear
9:35 AM 64.4 °F - 59.0 °F 83% 30.20 in 10.0 mi Calm Calm - N/A   Clear
9:55 AM 68.0 °F - 59.0 °F 73% 30.20 in 10.0 mi Calm Calm - N/A   Clear
10:15 AM 69.8 °F - 59.0 °F 68% 30.20 in 10.0 mi Calm Calm - N/A   Clear
10:35 AM 71.6 °F - 59.0 °F 64% 30.19 in 10.0 mi Calm Calm - N/A   Clear
10:55 AM 73.4 °F - 59.0 °F 61% 30.20 in 10.0 mi Calm Calm - N/A   Clear
11:15 AM 75.2 °F - 57.2 °F 53% 30.19 in 10.0 mi Calm Calm - N/A   Clear
11:35 AM 77.0 °F - 59.0 °F 54% 30.19 in 10.0 mi Calm Calm - N/A   Clear
11:55 AM 78.8 °F - 59.0 °F 51% 30.19 in 10.0 mi Calm Calm - N/A   Clear
12:15 PM 80.6 °F 81.1 °F 59.0 °F 48% 30.18 in 10.0 mi Calm Calm - N/A   Clear
12:35 PM 80.6 °F 80.5 °F 55.4 °F 42% 30.18 in 10.0 mi Calm Calm - N/A   Scattered Clouds
12:55 PM 80.6 °F 80.5 °F 55.4 °F 42% 30.18 in 10.0 mi Calm Calm - N/A   Scattered Clouds
1:15 PM 82.4 °F - 50.0 °F 32% 30.18 in 10.0 mi ESE 4.6 mph - N/A   Clear
1:35 PM 82.4 °F - 50.0 °F 32% 30.17 in 10.0 mi SW 3.5 mph - N/A   Clear
1:55 PM 82.4 °F - 51.8 °F 35% 30.17 in 10.0 mi WSW 3.5 mph - N/A   Clear
2:15 PM 82.4 °F - 46.4 °F 28% 30.17 in 10.0 mi Calm Calm - N/A   Clear
2:35 PM 84.2 °F - 50.0 °F 30% 30.16 in 10.0 mi West 4.6 mph - N/A   Clear
2:55 PM 84.2 °F - 48.2 °F 29% 30.16 in 10.0 mi Calm Calm - N/A   Clear
3:15 PM 86.0 °F - 48.2 °F 27% 30.15 in 10.0 mi Calm Calm - N/A   Clear
3:35 PM 86.0 °F - 48.2 °F 27% 30.15 in 10.0 mi East 4.6 mph - N/A   Clear
3:55 PM 86.0 °F - 50.0 °F 29% 30.15 in 10.0 mi Calm Calm - N/A   Clear
4:15 PM 86.0 °F - 50.0 °F 29% 30.14 in 10.0 mi Calm Calm - N/A   Clear
4:35 PM 86.0 °F - 51.8 °F 31% 30.14 in 10.0 mi Calm Calm - N/A   Clear
4:55 PM 86.0 °F - 48.2 °F 27% 30.14 in 10.0 mi Calm Calm - N/A   Clear
5:15 PM 86.0 °F - 48.2 °F 27% 30.13 in 10.0 mi Calm Calm - N/A   Clear
5:35 PM 86.0 °F - 46.4 °F 25% 30.14 in 10.0 mi Calm Calm - N/A   Clear
5:55 PM 86.0 °F - 50.0 °F 29% 30.13 in 10.0 mi SW 5.8 mph - N/A   Clear
6:15 PM 84.2 °F - 50.0 °F 30% 30.14 in 10.0 mi Calm Calm - N/A   Clear
6:35 PM 82.4 °F - 50.0 °F 32% 30.13 in 10.0 mi WSW 3.5 mph - N/A   Clear
6:55 PM 82.4 °F 81.4 °F 53.6 °F 37% 30.13 in 10.0 mi Calm Calm - N/A   Clear
7:15 PM 80.6 °F 80.5 °F 55.4 °F 42% 30.14 in 10.0 mi Calm Calm - N/A   Clear
7:35 PM 78.8 °F - 60.8 °F 54% 30.15 in 10.0 mi Calm Calm - N/A   Clear
7:55 PM 75.2 °F - 60.8 °F 61% 30.15 in 10.0 mi Calm Calm - N/A   Clear
8:15 PM 73.4 °F - 60.8 °F 65% 30.16 in 10.0 mi Calm Calm - N/A   Clear
8:35 PM 69.8 °F - 60.8 °F 73% 30.17 in 10.0 mi Calm Calm - N/A   Clear
8:55 PM 69.8 °F - 60.8 °F 73% 30.17 in 10.0 mi Calm Calm - N/A   Clear
9:15 PM 69.8 °F - 62.6 °F 78% 30.17 in 10.0 mi Calm Calm - N/A   Mostly Cloudy
9:35 PM 66.2 °F - 62.6 °F 88% 30.17 in 10.0 mi Calm Calm - N/A   Scattered Clouds
9:55 PM 66.2 °F - 62.6 °F 88% 30.18 in 10.0 mi Calm Calm - N/A   Clear
10:15 PM 64.4 °F - 62.6 °F 94% 30.18 in 10.0 mi Calm Calm - N/A   Clear
10:35 PM 62.6 °F - 62.6 °F 100% 30.19 in 7.0 mi Calm Calm - N/A   Clear
10:55 PM 62.6 °F - 62.6 °F 100% 30.20 in 7.0 mi Calm Calm - N/A   Clear
11:15 PM 62.6 °F - 62.6 °F 100% 30.20 in 7.0 mi Calm Calm - N/A   Clear
11:35 PM 62.6 °F - 60.8 °F 94% 30.20 in 5.0 mi Calm Calm - N/A   Clear
11:55 PM 60.8 °F - 60.8 °F 100% 30.20 in 2.0 mi Calm Calm - N/A   Clear